TimeCST,TemperatureF,Dew PointF,Humidity,Sea Level PressureIn,VisibilityMPH,Wind Direction,Wind SpeedMPH,Gust SpeedMPH,PrecipitationIn,Events,Conditions,WindDirDegrees,DateUTC
12:15 AM,30.2,23.0,75,30.04,10.0,West,20.7,25.3,N/A,,Overcast,280,2012-11-12 06:15:00
12:35 AM,30.2,23.0,75,30.05,10.0,West,19.6,24.2,N/A,,Overcast,280,2012-11-12 06:35:00
12:55 AM,30.2,21.2,69,30.06,10.0,WNW,19.6,25.3,N/A,,Overcast,290,2012-11-12 06:55:00
1:15 AM,28.4,19.4,69,30.05,10.0,West,20.7,25.3,N/A,,Overcast,280,2012-11-12 07:15:00
1:35 AM,28.4,19.4,69,30.07,10.0,West,21.9,26.5,N/A,,Overcast,280,2012-11-12 07:35:00
1:55 AM,28.4,19.4,69,30.08,10.0,West,23.0,29.9,N/A,,Overcast,280,2012-11-12 07:55:00
2:15 AM,26.6,17.6,69,30.07,10.0,WNW,25.3,29.9,N/A,,Mostly Cloudy,290,2012-11-12 08:15:00
2:35 AM,26.6,17.6,69,30.09,10.0,WNW,23.0,-,N/A,,Clear,290,2012-11-12 08:35:00
2:55 AM,24.8,17.6,74,30.10,10.0,WNW,16.1,21.9,N/A,,Scattered Clouds,290,2012-11-12 08:55:00
3:15 AM,24.8,17.6,74,30.10,10.0,WNW,17.3,25.3,N/A,,Mostly Cloudy,290,2012-11-12 09:15:00
3:35 AM,24.8,15.8,69,30.10,10.0,WNW,13.8,-,N/A,,Clear,290,2012-11-12 09:35:00
3:55 AM,24.8,17.6,74,30.11,10.0,West,11.5,-,N/A,,Clear,280,2012-11-12 09:55:00
4:15 AM,24.8,15.8,69,30.12,10.0,West,13.8,-,N/A,,Clear,280,2012-11-12 10:15:00
4:35 AM,24.8,15.8,69,30.12,10.0,West,16.1,-,N/A,,Clear,280,2012-11-12 10:35:00
4:55 AM,23.0,17.6,80,30.12,10.0,West,13.8,-,N/A,,Clear,270,2012-11-12 10:55:00
5:15 AM,23.0,15.8,74,30.12,10.0,West,13.8,-,N/A,,Clear,280,2012-11-12 11:15:00
5:35 AM,23.0,15.8,74,30.13,10.0,West,17.3,-,N/A,,Clear,280,2012-11-12 11:35:00
5:55 AM,21.2,15.8,80,30.13,10.0,West,15.0,21.9,N/A,,Clear,270,2012-11-12 11:55:00
6:15 AM,21.2,15.8,80,30.14,10.0,West,13.8,19.6,N/A,,Clear,270,2012-11-12 12:15:00
6:35 AM,21.2,15.8,80,30.14,10.0,West,15.0,19.6,N/A,,Clear,270,2012-11-12 12:35:00
6:55 AM,21.2,15.8,80,30.15,10.0,West,15.0,-,N/A,,Clear,260,2012-11-12 12:55:00
7:15 AM,21.2,15.8,80,30.16,10.0,West,15.0,20.7,N/A,,Clear,260,2012-11-12 13:15:00
7:35 AM,23.0,15.8,74,30.16,10.0,West,19.6,-,N/A,,Clear,260,2012-11-12 13:35:00
7:55 AM,24.8,15.8,69,30.17,10.0,West,18.4,-,N/A,,Clear,260,2012-11-12 13:55:00
8:15 AM,24.8,17.6,74,30.18,10.0,West,20.7,-,N/A,,Partly Cloudy,260,2012-11-12 14:15:00
8:35 AM,24.8,17.6,74,30.18,10.0,West,20.7,-,N/A,,Partly Cloudy,270,2012-11-12 14:35:00
8:55 AM,26.6,17.6,69,30.18,10.0,West,23.0,27.6,N/A,,Partly Cloudy,280,2012-11-12 14:55:00
9:15 AM,26.6,17.6,69,30.18,10.0,West,20.7,25.3,N/A,,Clear,270,2012-11-12 15:15:00
9:55 AM,28.4,17.6,64,30.18,10.0,West,24.2,-,N/A,,Clear,270,2012-11-12 15:55:00
10:15 AM,28.4,17.6,64,30.18,10.0,West,21.9,27.6,N/A,,Partly Cloudy,270,2012-11-12 16:15:00
10:35 AM,30.2,19.4,64,30.18,10.0,West,21.9,25.3,N/A,,Partly Cloudy,270,2012-11-12 16:35:00
10:55 AM,30.2,19.4,64,30.19,10.0,West,19.6,-,N/A,,Scattered Clouds,260,2012-11-12 16:55:00
11:15 AM,30.2,19.4,64,30.18,10.0,West,24.2,-,N/A,,Mostly Cloudy,260,2012-11-12 17:15:00
11:35 AM,30.2,19.4,64,30.17,10.0,West,20.7,29.9,N/A,,Mostly Cloudy,270,2012-11-12 17:35:00
11:55 AM,32.0,19.4,60,30.18,10.0,West,19.6,-,N/A,,Mostly Cloudy,260,2012-11-12 17:55:00
12:15 PM,32.0,21.2,64,30.17,10.0,West,20.7,26.5,N/A,,Mostly Cloudy,260,2012-11-12 18:15:00
12:35 PM,30.2,19.4,64,30.17,10.0,West,21.9,-,N/A,,Mostly Cloudy,270,2012-11-12 18:35:00
12:55 PM,33.8,19.4,56,30.17,10.0,West,18.4,23.0,N/A,,Overcast,270,2012-11-12 18:55:00
1:15 PM,33.8,19.4,56,30.16,10.0,West,23.0,28.8,N/A,,Overcast,260,2012-11-12 19:15:00
1:35 PM,33.8,19.4,56,30.17,10.0,West,21.9,26.5,N/A,,Overcast,260,2012-11-12 19:35:00
1:55 PM,33.8,19.4,56,30.18,10.0,West,21.9,29.9,N/A,,Overcast,280,2012-11-12 19:55:00
2:15 PM,33.8,19.4,56,30.18,10.0,West,20.7,27.6,N/A,,Overcast,270,2012-11-12 20:15:00
2:35 PM,33.8,19.4,56,30.19,10.0,West,21.9,29.9,N/A,,Overcast,270,2012-11-12 20:35:00
2:55 PM,32.0,19.4,60,30.19,10.0,West,23.0,-,N/A,,Overcast,270,2012-11-12 20:55:00
3:15 PM,32.0,19.4,60,30.20,10.0,West,20.7,27.6,N/A,,Overcast,270,2012-11-12 21:15:00
3:35 PM,32.0,19.4,60,30.22,10.0,West,20.7,27.6,N/A,,Overcast,280,2012-11-12 21:35:00
3:55 PM,32.0,19.4,60,30.23,10.0,West,16.1,26.5,N/A,,Overcast,280,2012-11-12 21:55:00
4:35 PM,32.0,21.2,64,30.24,10.0,West,16.1,20.7,N/A,,Overcast,280,2012-11-12 22:35:00
4:55 PM,32.0,21.2,64,30.24,10.0,West,11.5,-,N/A,,Overcast,280,2012-11-12 22:55:00
5:15 PM,32.0,21.2,64,30.25,10.0,West,16.1,21.9,N/A,,Overcast,280,2012-11-12 23:15:00
5:35 PM,32.0,21.2,64,30.26,10.0,West,15.0,-,N/A,,Overcast,270,2012-11-12 23:35:00
5:55 PM,32.0,21.2,64,30.27,10.0,West,15.0,-,N/A,,Overcast,270,2012-11-12 23:55:00
6:15 PM,33.8,21.2,60,30.28,10.0,West,16.1,19.6,N/A,,Overcast,270,2012-11-13 00:15:00
6:35 PM,32.0,21.2,64,30.28,10.0,West,13.8,-,N/A,,Overcast,270,2012-11-13 00:35:00
6:55 PM,32.0,21.2,64,30.28,10.0,West,13.8,-,N/A,,Overcast,270,2012-11-13 00:55:00
7:15 PM,32.0,21.2,64,30.29,10.0,West,13.8,-,N/A,,Overcast,270,2012-11-13 01:15:00
7:35 PM,32.0,21.2,64,30.30,10.0,West,15.0,19.6,N/A,,Overcast,280,2012-11-13 01:35:00
7:55 PM,32.0,19.4,60,30.31,10.0,West,13.8,-,N/A,,Overcast,280,2012-11-13 01:55:00
8:35 PM,30.2,21.2,69,30.32,10.0,WNW,11.5,-,N/A,,Overcast,290,2012-11-13 02:35:00
8:55 PM,30.2,19.4,64,30.33,10.0,WNW,11.5,-,N/A,,Overcast,290,2012-11-13 02:55:00
9:15 PM,30.2,19.4,64,30.34,10.0,WNW,12.7,23.0,N/A,,Overcast,290,2012-11-13 03:15:00
9:35 PM,30.2,19.4,64,30.35,10.0,NW,10.4,-,N/A,,Overcast,310,2012-11-13 03:35:00
9:55 PM,28.4,19.4,69,30.36,10.0,NW,8.1,-,N/A,,Mostly Cloudy,320,2012-11-13 03:55:00
10:15 PM,28.4,21.2,74,30.37,10.0,West,4.6,-,N/A,,Overcast,270,2012-11-13 04:15:00
10:35 PM,26.6,19.4,74,30.38,10.0,WNW,5.8,-,N/A,,Mostly Cloudy,300,2012-11-13 04:35:00
10:55 PM,24.8,17.6,74,30.38,10.0,West,6.9,-,N/A,,Partly Cloudy,270,2012-11-13 04:55:00
11:15 PM,23.0,17.6,80,30.39,10.0,West,6.9,-,N/A,,Clear,270,2012-11-13 05:15:00
11:35 PM,21.2,17.6,86,30.39,10.0,West,8.1,-,N/A,,Clear,270,2012-11-13 05:35:00
11:55 PM,21.2,17.6,86,30.39,10.0,West,6.9,-,N/A,,Clear,280,2012-11-13 05:55:00